User: anonymous   Login
Location: Le Domaine
(47.0333°N, 76.5361°W)
Time: 08:41:53
(UTC-05:00)
Language:

Explorer 11/Cluster Stage 4 - Orbit

View from above orbital plane
View from above orbital plane
View from above satellite
View from above satellite

Ground track
Ground track

The orbit data is extracted from the following two-line orbital elements,

1   107U 61013A   19315.38492697  .00000560  00000-0  52765-4 0  9996
2   107  28.7923 338.5915 0546984 255.1985  98.7388 14.08848624934853
Epoch (UTC): 11 November 2019 09:14:17
Eccentricity: 0.0546984
inclination: 28.7923°
perigee height: 467 km
apogee height: 1259 km
right ascension of ascending node: 338.5915°
argument of perigee: 255.1985°
revolutions per day: 14.08848624
mean anomaly at epoch: 98.7388°
orbit number at epoch: 93485

The dashed part of the orbit path shows where the satellite is in the earth's shadow,  

DLR